This demonstration page uses our WeatherBlox Daily Observations layout. Learn more.

Left ArrowRight Arrow

Hourly Observations for February 15, 2016

Temp ( °F °C ) Dew Point ( °F °C ) Humidity (%) Winds ( mph kmh ) Pressure ( in mb ) Visibility ( mi km ) Precip ( " mm )
12:06 am 00:06 Cloudy with Light Wintry Mix 30 -1 30 -1 100 100 NE 2 4 29.94 1014 10 16 0.00 0.00
12:18 am 00:18 Cloudy 32 0 30 -1 93 93 NNE 2 4 29.94 1014 10 16 0.00 0.00
12:22 am 00:22 Mostly Cloudy with Light Snow 32 0 30 -1 93 93 N 1 2 29.94 1014 10 16 0.00 0.00
12:30 am 00:30 Mostly Cloudy 32 0 30 -1 93 93 NW 1 2 29.94 1014 10 16 0.00 0.00
12:58 am 00:58 Cloudy 30 -0.9 30 -1.1 99 99 S 3 6 29.91 1013 10 16 0.00 0.03
1:48 am 01:48 Cloudy 30 -1 30 -1 100 100 Calm 29.94 1014 10 16 0.00 0.00
1:58 am 01:58 Cloudy 30 -1.2 30 -1.3 99 99 Calm 29.91 1013 10 16 0.00 0.03
2:09 am 02:09 Cloudy 30 -1 30 -1 100 100 Calm 29.94 1014 10 16 0.00 0.00
2:37 am 02:37 Cloudy 30 -1 30 -1 100 100 WSW 2 4 29.94 1014 10 16 0.00 0.00
2:58 am 02:58 Cloudy 31 -0.5 31 -0.7 99 99 SW 2 4 29.92 1013 10 16 0.00 0.03
3:55 am 03:55 Cloudy 32 0 32 0 100 100 E 1 2 29.88 1012 10 16 0.00 0.00
3:58 am 03:58 Cloudy 31 -0.4 31 -0.5 99 99 SE 1 2 29.90 1012 10 16 0.00 0.00
4:13 am 04:13 Cloudy with Light Freezing Rain 32 0 32 0 100 100 S 5 7 29.88 1012 10 16 0.00 0.00
4:23 am 04:23 Cloudy 32 0 32 0 100 100 SSE 3 6 29.88 1012 10 16 0.00 0.00
4:58 am 04:58 Cloudy 32 -0.2 31 -0.3 99 99 SSE 2 4 29.88 1012 10 16 0.00 0.03
5:08 am 05:08 Cloudy 32 0 32 0 100 100 Calm 29.85 1011 10 16 0.00 0.00
5:23 am 05:23 Cloudy 32 0 32 0 100 100 Calm 29.85 1011 10 16 0.00 0.00
5:28 am 05:28 Cloudy 32 0 32 0 100 100 Calm 29.85 1011 10 16 0.00 0.00
5:39 am 05:39 Cloudy 30 -1 30 -1 100 100 S 1 2 29.88 1012 10 16 0.00 0.00
5:58 am 05:58 Mostly Cloudy 30 -1.2 30 -1.3 99 99 Calm 29.88 1012 10 16 0.00 0.00
6:05 am 06:05 Cloudy 28 -2 28 -2 100 100 Calm 29.88 1012 10 16 0.00 0.00
6:58 am 06:58 Cloudy 30 -1 30 -1.1 99 99 Calm 29.88 1012 10 16 0.00 0.00
7:46 am 07:46 Partly Cloudy 30 -1 30 -1 100 100 S 6 9 29.88 1012 10 16 0.00 0.00
7:58 am 07:58 Mostly Sunny 29 -1.4 29 -1.5 99 99 S 5 7 29.88 1012 7 11 0.00 0.00
8:58 am 08:58 Sunny 33 0.7 32 0 95 95 SW 2 4 29.89 1012 10 16 0.00 0.00
9:58 am 09:58 Sunny 39 3.7 31 -0.5 74 74 SW 7 11 29.88 1012 10 16 0.00 0.00
10:58 am 10:58 Sunny 42 5.8 32 0.2 68 68 SW 10 17 29.87 1011 10 16 0.00 0.00
11:58 am 11:58 Sunny 45 7.1 33 0.8 65 65 SW 9 15 29.84 1011 10 16 0.00 0.00
12:58 pm 12:58 Sunny 47 8.3 35 1.4 62 62 WSW 9 15 29.80 1009 10 16 0.00 0.00
1:58 pm 13:58 Sunny 48 9.1 34 1.3 58 58 SW 8 13 29.77 1008 10 16 0.00 0.00
2:58 pm 14:58 Sunny 49 9.6 35 1.5 57 57 SW 8 13 29.75 1007 10 16 0.00 0.00
3:58 pm 15:58 Mostly Sunny 49 9.7 36 2 59 59 SW 8 13 29.75 1007 10 16 0.00 0.00
4:58 pm 16:58 Sunny 48 8.8 35 1.7 61 61 SW 7 11 29.73 1007 10 16 0.00 0.00
5:58 pm 17:58 Clear 45 7.4 35 1.7 67 67 S 5 7 29.73 1007 10 16 0.00 0.00
6:58 pm 18:58 Clear 42 5.3 34 1 74 74 S 5 7 29.71 1006 10 16 0.00 0.00
7:58 pm 19:58 Mostly Cloudy 37 2.6 33 0.3 85 85 SE 1 2 29.70 1006 10 16 0.00 0.00
8:58 pm 20:58 Mostly Cloudy 38 3.6 33 0.8 82 82 Calm 29.69 1005 10 16 0.00 0.00
9:44 pm 21:44 Mostly Cloudy with Light Rain 41 5 32 0 70 70 W 2 4 29.71 1006 10 16 0.00 0.00
9:58 pm 21:58 Cloudy with Light Rain 39 4.1 35 1.4 83 83 E 2 4 29.68 1005 10 16 0.00 0.03
10:14 pm 22:14 Cloudy 39 4 34 1 81 81 E 2 4 29.71 1006 10 16 0.00 0.00
10:55 pm 22:55 Cloudy with Light Rain 39 4 34 1 81 81 W 3 6 29.71 1006 10 16 0.00 0.00
10:58 pm 22:58 Cloudy with Drizzle 39 3.7 35 1.5 86 86 Calm 29.68 1005 10 16 0.00 0.03
11:58 pm 23:58 Cloudy with Light Rain 38 3.2 36 2 92 92 E 7 11 29.65 1004 10 16 0.00 0.03

Powered by AerisWeather